FREGAT DEB, 45840

Orbit data source: Space-Track

FREGAT DEB, 45840 is space debris in LEO originally from a launch on Mon, 18 Jul 2011 UTC launched from the Tyuratam Missile And Space Complex (TTMTR). Debris objects in space refer to the collection of defunct objects orbiting the Earth. Examples of debris include non-operational satellites, rocket bodies, and fragments generated from explosions, collisions, or faulty payload assembly.

Loading next visibility...
Identifier
45840, 2011-037CA
Orbit
LEO
Country
Flag of CISCIS
Related business
Manufacturer
Lavochkin
Mission
Spacecraft
Bus & Motor
Unknown
Mass
Unknown
Launch date (UTC)
2011-07-18 (14 years ago)
Launch vehicle
Unknown
Launch site
Tyuratam Missile And Space Complex (TTMTR)
Object type
Payload
Rocket body
Debris
Shape & HBR
Unknown
Radar Cross Section
Small (<0.1 m²)

Expand to show TLE details & history
Last TLE update: 3 days ago

TLE from 3 days ago
0 FREGAT DEB
1 45840U 11037CA  25256.36656761  .00005801  00000-0  20248-2 0  9995
2 45840  51.5509 328.2918 1934029  71.7920 308.3039 11.08706028205731
Epoch: 2025-09-13T08:47Z
TLE epoch observation values (Epoch: 2025-09-13T08:47:51.441Z)
Latitude
-0.00003°
Longitude
-156.27351°
Altitude
1,332.11 km
Speed
7.517 km/s
True Right ascension
21h 53m 10s
True Declination
0° 00' 00"
Sunlit
Object was in full shadow at epoch
Visualization orbit readout
Latitude
Unknown
Longitude
Unknown
Altitude
Unknown
Speed
Unknown
Apparent Right ascension
Unknown
Apparent Declination
Unknown
Sunlit
N/A
Visualization observer readout
Local Sidereal Time
09:37:15
Azimuth
Unknown
Elevation
Unknown
Doppler factor
Unknown
Orbital elements
Apogee altitude
3,760.993 km
Perigee altitude
474.698 km
Semi-major axis
8,495.983 km
Eccentricity
0.1934
Inclination
51.5509°
RAAN
328.2918°
Arg. of periapsis
71.792°
True anomaly
288.29435°
Mean anomaly
308.3039°
Eccentric anomaly
298.57225°
Mean motion
2.77155 °/min
Orbital period
129.89 mins
BSTAR
0.0020248
Loading maneuver chart data...
Computing Atmospheric mass density...
Loading historical data...
Loading historical data...
Loading historical data...
Loading historical data...
Loading historical data...
Loading historical data...
Loading historical data...

Documentation

Showing up to 5 results
|